Regional Weather Roundup
Issued by NWS Cleveland, OH

Home | Current Version | Previous Version | Text Only | Print | Product List | Glossary Off
Versions: 1 2 3 4 5 6 7 8 9 10 11 12 13 14 15 16 17 18 19 20 21 22 23 24 25 26 27 28 29 30 31 32 33 34 35 36 37 38 39 40 41 42 43 44 45 46 47 48 49 50

000
ASUS41 KCLE 281202
RWRCLE
OHIO REGIONAL WEATHER ROUNDUP
NATIONAL WEATHER SERVICE CLEVELAND, OH
800 AM EDT TUE MAR 28 2017

NOTE: "FAIR" INDICATES FEW OR NO CLOUDS BELOW 12,000 FEET WITH NO
SIGNIFICANT WEATHER AND/OR OBSTRUCTIONS TO VISIBILITY.

OHZ001>008-015>018-024>027-034-035-043-044-281300-
   NORTHWEST OHIO

CITY           SKY/WX    TMP DP  RH WIND       PRES   REMARKS
DEFIANCE       CLOUDY    48  44  86 N7        29.96R
FINDLAY        CLOUDY    48  44  86 N13       29.94R FOG
TOLEDO EXPRESS CLOUDY    45  43  93 E8        29.96R
TOLEDO EXEC    CLOUDY    43  41  93 NE9       29.98R
LIMA           CLOUDY    49  48  97 N12       29.93R FOG
$$

OHZ009>014-019>023-028>033-038-089-281300-
   NORTHEAST OHIO

CITY           SKY/WX    TMP DP  RH WIND       PRES   REMARKS
CLE-HOPKINS    CLOUDY    45  42  89 N13       29.95R FOG
CLE-LAKEFRONT  LGT RAIN  41  40  96 NE8       29.93R VSB 1/4
CUY CO. ARPT   FOG       46  46 100 NE9       29.92R VSB 1/4
LORAIN-ELYRIA  LGT RAIN  42  40  92 N10       29.94R
ASHTABULA      FOG       46  46 100 VRB5      29.92R VSB 3/4
AKRON-CANTON   LGT RAIN  52  49  89 NE8       29.87R FOG
WOOSTER        LGT RAIN  51  50  96 N10       29.89R
MANSFIELD      LGT RAIN  48  47  96 N12       29.90R FOG
YOUNGSTOWN     LGT RAIN  51  49  92 N5        29.88R FOG
$$

OHZ042-051>053-060>062-070>072-077>081-281300-
  SOUTHWEST OHIO

CITY           SKY/WX    TMP DP  RH WIND       PRES   REMARKS
CINC-COVINGTON CLOUDY    56  55  97 W9        29.90R FOG
CINC-LUNKEN    LGT RAIN  56  56 100 W6        29.90R FOG
HAMILTON       CLOUDY    56  55  97 NW10      29.90R
DAYTON         LGT RAIN  53  52  96 N13       29.91R VSB 1
WRIGHT-PAT AFB NOT AVBL
DAYTON GENERAL CLOUDY    56  55  97 NW7       29.88R FOG
WILMINGTON     CLOUDY    55  54  96 W7        29.88R
$$

OHZ036-037-039>041-045>050-054>059-063>069-073>076-082>088-281300-
  CENTRAL AND SOUTHEAST OHIO

CITY           SKY/WX    TMP DP  RH WIND       PRES   REMARKS
COLUMBUS       CLOUDY    56  55  97 NW6       29.86R FOG
OSU AIRPORT    CLOUDY    54  54 100 N7        29.88R FOG
BOLTON FIELD   CLOUDY    54  54 100 NW6       29.88R FOG
RICKENBACK AFB CLOUDY    54  54 100 SW5       29.87R FOG
NEWARK         CLOUDY    56  54  93 CALM      29.86R FOG
MARION         CLOUDY    50  48  93 N16       29.91R FOG
LANCASTER      CLOUDY    57  54  89 SW5       29.88R FOG
ZANESVILLE     CLOUDY    56  53  90 S7        29.86R
NEW PHILLY     NOT AVBL
$$




USA.gov is the U.S. government's official web portal to all federal, state and local government web resources and services.